Weather History for Paso Robles, CA

Change the Weather History Date:

Friday, March 28, 2014

  Actual Average Record
Temperature  
Mean Temperature 58 °F 54 °F  
Max Temperature 74 °F 68 °F 85 °F (1969)
Min Temperature 41 °F 40 °F 25 °F (1972)
Degree Days  
Heating Degree Days 7 11  
Month to date heating degree days 201 334  
Since 1 July heating degree days 1906 2427  
Cooling Degree Days 0 0  
Month to date cooling degree days 0 0  
Year to date cooling degree days 0 0  
Growing Degree Days 7 (Base 50)    
Moisture  
Dew Point 42 °F    
Average Humidity 57    
Maximum Humidity 89    
Minimum Humidity 25    
Precipitation  
Precipitation 0.00 in 0.05 in 1.06 in (2006)
Month to date precipitation 0.82 2.33  
Year to date precipitation 3.48 7.67  
Since 1 July precipitation 3.94 11.66  
Sea Level Pressure  
Sea Level Pressure 30.15 in    
Wind  
Wind Speed 4 mph (WSW)    
Max Wind Speed 12 mph    
Max Gust Speed 14 mph    
Visibility 10 miles    
Events      
T = Trace of Precipitation, MM = Missing Value Source: NWS Daily Summary

Daily Weather History Graph

Daily Weather History Graph

Search for Another Location

Airport:

Trip Planner

Search our weather history database for the weather conditions in past years. The results will help you decide how hot, cold, wet, or windy it might be!

Date:

Astronomy

Mar. 28, 2014 Rise Set
Actual Time 6:54 AM PDT 7:20 PM PDT
Civil Twilight 6:28 AM PDT 7:46 PM PDT
Nautical Twilight 5:58 AM PDT 8:16 PM PDT
Astronomical Twilight 5:28 AM PDT 8:47 PM PDT
Moon 5:24 AM PDT (3/28) 5:26 PM PDT (3/28)
Length of Visible Light 13h 17m
Length of Day
12h 26m
Waning Crescent, 5% of the Moon is Illuminated
Mar 28
Waning Crescent
Mar 30
New
Apr 7
First Quarter
Apr 15
Full
Apr 22
Last Quarter

Hourly Weather History & Observations

Time (PDT) Temp. Windchill Dew Point Humidity Pressure Visibility Wind Dir Wind Speed Gust Speed Precip Events Conditions
12:53 AM 48.9 °F - 43.0 °F 80% 30.15 in 10.0 mi NW 4.6 mph - N/A   Clear
1:53 AM 48.0 °F - 42.1 °F 80% 30.14 in 10.0 mi SW 4.6 mph - N/A   Clear
2:53 AM 46.0 °F - 41.0 °F 83% 30.15 in 10.0 mi Calm Calm - N/A   Clear
3:53 AM 43.0 °F 41.3 °F 39.9 °F 89% 30.15 in 10.0 mi East 3.5 mph - N/A   Clear
4:53 AM 43.0 °F 41.3 °F 39.9 °F 89% 30.15 in 10.0 mi SE 3.5 mph - N/A   Clear
5:53 AM 42.1 °F 40.2 °F 39.0 °F 89% 30.17 in 10.0 mi South 3.5 mph - N/A   Clear
6:53 AM 41.0 °F - 37.9 °F 89% 30.18 in 10.0 mi Calm Calm - N/A   Clear
7:53 AM 42.1 °F - 39.0 °F 89% 30.20 in 10.0 mi Calm Calm - N/A   Clear
8:53 AM 46.9 °F - 42.1 °F 83% 30.21 in 10.0 mi Calm Calm - N/A   Clear
9:53 AM 52.0 °F - 43.0 °F 71% 30.22 in 10.0 mi Calm Calm - N/A   Clear
10:53 AM 57.0 °F - 44.1 °F 62% 30.22 in 10.0 mi Calm Calm - N/A   Clear
11:53 AM 63.0 °F - 44.1 °F 50% 30.20 in 10.0 mi Variable 3.5 mph - N/A   Clear
12:53 PM 68.0 °F - 43.0 °F 40% 30.18 in 10.0 mi NNE 4.6 mph - N/A   Clear
1:53 PM 69.1 °F - 39.0 °F 33% 30.16 in 10.0 mi Variable 4.6 mph - N/A   Clear
2:53 PM 71.1 °F - 39.9 °F 32% 30.13 in 10.0 mi Variable 4.6 mph - N/A   Clear
3:53 PM 71.1 °F - 39.0 °F 31% 30.11 in 10.0 mi WSW 3.5 mph - N/A   Clear
4:53 PM 73.0 °F - 36.0 °F 26% 30.09 in 10.0 mi North 4.6 mph - N/A   Clear
5:53 PM 72.0 °F - 36.0 °F 27% 30.08 in 10.0 mi Calm Calm - N/A   Clear
6:53 PM 66.9 °F - 46.9 °F 49% 30.08 in 10.0 mi SSW 8.1 mph - N/A   Clear
7:53 PM 62.1 °F - 46.0 °F 56% 30.10 in 10.0 mi SSW 6.9 mph - N/A   Clear
8:53 PM 57.9 °F - 45.0 °F 62% 30.12 in 10.0 mi SSW 3.5 mph - N/A   Clear
9:53 PM 57.0 °F - 46.0 °F 67% 30.15 in 10.0 mi WNW 5.8 mph - N/A   Clear
10:53 PM 55.9 °F - 46.9 °F 72% 30.15 in 10.0 mi WNW 8.1 mph - N/A   Clear
11:53 PM 54.0 °F - 46.9 °F 77% 30.15 in 10.0 mi West 9.2 mph - N/A   Clear